Regional Weather Roundup
Issued by NWS

Home | Current Version | Previous Version | Graphics & Text | Print | Product List | Glossary On
Versions: 1 2 3 4 5 6 7 8 9 10 11 12 13 14 15 16 17 18 19 20 21 22 23 24 25 26 27 28 29 30 31 32 33 34 35 36 37 38 39 40 41 42 43 44 45 46 47 48 49 50
000
ASUS43 KMPX 232101
RWRMN
WEATHER ROUNDUP FOR MINNESOTA
NATIONAL WEATHER SERVICE TWIN CITIES/CHANHASSEN MN
400 PM CDT TUE SEP 23 2014


NOTE: "FAIR" INDICATES FEW OR NO CLOUDS BELOW 12,000 FEET WITH NO
SIGNIFICANT WEATHER AND/OR OBSTRUCTIONS TO VISIBILITY. N/A MEANS
CURRENT SKY AND/OR WEATHER CONDITIONS ARE NOT AVAILABLE.

MNZ060>063-068>070-232200-
   Twin Cities Metro

CITY           SKY/WX    TMP DP  RH WIND       PRES   REMARKS
TWIN CITIES    PTSUNNY   73  51  46 S13       30.15F
ST PAUL        PTSUNNY   73  52  47 S17       30.16F
CRYSTAL        PTSUNNY   74  50  42 SE13      30.14F
LAKEVILLE      MOSUNNY   73  52  46 SE8       30.15F
EDEN PRAIRIE   PTSUNNY   74  52  46 SE14G22   30.14F
SOUTH ST PAUL  PTSUNNY   73  51  44 SE8       30.16F
LAKE ELMO      FAIR      72  54  53 S9G18     30.18F
$$
MNZ001>005-007-008-013>017-022>024-027-028-232200-
   Northwest Minnesota

CITY           SKY/WX    TMP DP  RH WIND       PRES   REMARKS
BEMIDJI        MOSUNNY   72  51  47 S10G16    30.07F
HALLOCK        SUNNY     79  57  47 S21G28    29.96S
ROSEAU         SUNNY     79  57  47 S18G24    30.00S
WARROAD        SUNNY     79  59  50 S9        30.01F
THIEF RVR FALL MOSUNNY   73  50  43 S15G22    30.02S
CROOKSTON      MOSUNNY   77  57  50 S20G29    30.00F
FOSSTON        PTSUNNY   77  50  38 S17G24    30.05F
DETROIT LAKES  SUNNY     68  52  56 S13G18    30.08S
MOORHEAD       SUNNY     73  45  35 S18G26    30.04F
PARK RAPIDS    MOSUNNY   74  49  41 S18G24    30.08F
MAHNOMEN       FAIR      74  50  43 S21       30.05F
$$
MNZ006-009>011-018-025>026-232200-
   North Central Minnesota

CITY           SKY/WX    TMP DP  RH WIND       PRES   REMARKS
BAUDETTE       SUNNY     75  52  44 S14       30.04F
FLAG ISLAND    SUNNY     64  57  77 S5        30.01S
INTL FALLS     SUNNY     73  51  46 S8        30.08F
WASKISH        SUNNY     75  54  46 S8G16     30.06F
BIG FORK       SUNNY     73  48  40 SW12G21   30.11F
LONGVILLE      PTSUNNY   73  54  49 S10G20    30.10F
GRAND RAPIDS   SUNNY     70  50  49 S16       30.13F
CRANE LAKE     SUNNY     73  46  38 S9G17     30.13S
ORR            SUNNY     73  43  33 SW8G16    30.10F
COOK           SUNNY     73  48  40 S10G17    30.13F
WALKER         FAIR      74  50  43 S15G22    30.08F
$$
MNZ012-019>021-037-232200-
   Northeast Minnesota

CITY           SKY/WX    TMP DP  RH WIND       PRES   REMARKS
DULUTH         SUNNY     73  47  39 SW15G23   30.16F
ELY            SUNNY     73  45  35 S7        30.14F
HIBBING        SUNNY     74  49  41 S8        30.14F
EVELETH        SUNNY     72  50  46 S10       30.15F
DULUTH HARBOR  SUNNY     75  52  43 S12       30.15F
TWO HARBORS    SUNNY     72  54  53 S7        30.15F
SILVER BAY     SUNNY     70  55  60 S13       30.15F
GRAND MARAIS     N/A     55  51  86 SW6       30.18F
G MARAIS ARPRT SUNNY     66  46  48 SW10      30.21F
$$
MNZ029>031-032-039>041-046>048-054>057-064-232200-
   West Central Minnesota

CITY           SKY/WX    TMP DP  RH WIND       PRES   REMARKS
FERGUS FALLS   PTSUNNY   64  46  52 S14       30.08F
WHEATON        CLOUDY    57  54  88 SE7       30.08F
MORRIS         CLOUDY    64  48  55 SE15      30.07F
ALEXANDRIA     CLOUDY    66  54  65 S12       30.12F
ELBOW LAKE     FAIR      63  49  61 S14       30.09F
WADENA         MOSUNNY   72  54  53 S12       30.09F
GLENWOOD       CLOUDY    66  54  63 S8        30.12S
APPLETON       CLOUDY    66  52  59 SE9       30.07F
BENSON         CLOUDY    70  54  56 S9G17     30.09F HAZE
ORTONVILLE     CLOUDY    61  54  77 SE9G17    30.06F
MADISON        CLOUDY    68  59  73 SE14      30.07F
WILLMAR        FAIR      72  48  43 SE15G23   30.11F
$$
MNZ033>034-036-042>043-049>051-058-059-232200-
   Central Minnesota

CITY           SKY/WX    TMP DP  RH WIND       PRES   REMARKS
ST CLOUD       PTSUNNY   75  51  43 SE14      30.12F
SAUK CENTRE    MOCLDY    72  55  54 S14       30.11F
PAYNESVILLE    PTSUNNY   67  52  58 SE9G16    30.12F
AITKIN         PTSUNNY   75  52  43 S13G18    30.12F
PINE RIVER     MOSUNNY   73  54  49 S12G18    30.13F
BRAINERD       MOSUNNY   70  50  49 S12       30.12F
STAPLES        MOSUNNY   72  50  46 S15G21    30.10F
LONG PRAIRIE   PTSUNNY   70  54  56 SE14      30.12F
LITTLE FALLS   MOSUNNY   70  50  49 S8        30.12F
LITCHFIELD     PTSUNNY   72  54  53 SE8       30.13F
BUFFALO        PTSUNNY   71  51  48 SE9       30.15S
MAPLE LAKE     PTSUNNY   74  55  52 SE7       30.14F
$$
MNZ037-044-045-052-053-232200-
   East Central Minnesota

CITY           SKY/WX    TMP DP  RH WIND       PRES   REMARKS
PRINCETON      PTSUNNY   75  54  46 SE9G16    30.14F
MORA           MOSUNNY   70  50  49 S13       30.16F
CAMBRIDGE      MOSUNNY   73  55  53 S7        30.13F
RUSH CITY      MOSUNNY   71  52  51 S7        30.15F
MOOSE LAKE     MOSUNNY   72  50  46 S7G17     30.14F
HINCKLEY       FAIR      70  52  52 S7        30.16F
CLOQUET        SUNNY     72  46  40 S9        30.16F
MCGREGOR       PTSUNNY   73  52  46 S8        30.14F
$$
MNZ071>073-080-081-089-090-097-098-232200-
   Southwest Minnesota

CITY           SKY/WX    TMP DP  RH WIND       PRES   REMARKS
MONTEVIDEO     CLOUDY    66  54  63 SW9G17    30.09F
GRANITE FALLS  CLOUDY    67  54  63 SE13G18   30.10F
CANBY          CLOUDY    63  57  83 SE10      30.07F
MARSHALL       CLOUDY    63  54  72 S18       30.08F
REDWOOD FALLS  PTSUNNY   71  51  49 S17G26    30.10F
OLIVIA         PTSUNNY   70  52  52 S12G18    30.09F
PIPESTONE      LGT RAIN  57  54  88 S12G18    30.08F
WINDOM         LGT RAIN  63  55  77 S13G23    30.12F
WORTHINGTON    CLOUDY    61  54  77 S16G22    30.12F
JACKSON        CLOUDY    63  55  77 S12       30.14F
TRACY          LGT RAIN  62  56  81 S10       30.11S
SLAYTON        LGT RAIN  57  56  95 S7        30.12F
$$
MNZ065>067-074>077-082>085-091>093-232200-
   South Central Minnesota

CITY           SKY/WX    TMP DP  RH WIND       PRES   REMARKS
MANKATO        MOSUNNY   73  48  40 S12G21    30.14F
NEW ULM        PTSUNNY   70  50  49 S17G24    30.11F
ST JAMES       PTSUNNY   72  50  46 S15       30.13F
FAIRMONT       CLOUDY    68  48  49 S16       30.14S
GLENCOE        MOSUNNY   76  46  33 SE14G22   30.12F
FARIBAULT      MOSUNNY   77  43  29 S13       30.16F
OWATONNA       MOSUNNY   72  48  43 S13       30.17F
WASECA         MOSUNNY   72  43  35 S13       30.17F
ALBERT LEA     PTSUNNY   72  48  43 SE15G21   30.17S
$$
MNZ078>079-086>088-094>096-232200-
   Southeast Minnesota

CITY           SKY/WX    TMP DP  RH WIND       PRES   REMARKS
ROCHESTER      MOSUNNY   72  51  47 S13G22    30.21F
RED WING       PTSUNNY   73  48  40 S12       30.17F
STANTON        MOSUNNY   74  49  40 S12       30.15F
DODGE CENTER   SUNNY     72  52  49 S14       30.19S
WINONA         MOSUNNY   73  52  46 S5        30.21F
AUSTIN         MOSUNNY   70  50  49 S10G16    30.18F
PRESTON        MOSUNNY   70  55  59 S9        30.21F
$$
ABBREVIATIONS USED IN REMARKS
   TC - TEMPERATURES IN CELSIUS
  WCI - WIND CHILL INDEX
   HX - HEAT INDEX
  VSB - VISIBILITY
$$



USA.gov is the U.S. government's official web portal to all federal, state and local government web resources and services.